Regional Weather Roundup
Issued by NWS

Home | Current Version | Previous Version | Graphics & Text | Print | Product List | Glossary On
Versions: 1 2 3 4 5 6 7 8 9 10 11 12 13 14 15 16 17 18 19 20 21 22 23 24 25 26 27 28 29 30 31 32 33 34 35 36 37 38 39 40 41 42 43 44 45 46 47 48 49 50
000
ASUS43 KLSX 212257
RWRMO

WEATHER SUMMARY FOR MISSOURI
NATIONAL WEATHER SERVICE SPRINGFIELD MO
600 PM CDT FRI JUL 21 2017

NOTE: "FAIR" INDICATES FEW OR NO CLOUDS BELOW 12,000 FEET WITH NO
       SIGNIFICANT WEATHER AND/OR OBSTRUCTIONS TO VISIBILITY.
       CURRENT SKY AND/OR WEATHER CONDITIONS ARE NOT AVAILABLE FOR
       CHILLICOTHE AND FARMINGTON.

MOZ001>031-035>038-043-044-053-054-220000-
...NORTHERN AND WESTERN MISSOURI...

CITY           SKY/WX    TMP DP  RH WIND       PRES   REMARKS
KANSAS CTY INT SUNNY     96  76  52 S15       29.84F HX 109
LEE`S SUMMIT   SUNNY     96  74  48 S16G25    29.86F HX 107
ST JOSEPH      SUNNY     94  78  60 S10       29.80F HX 110
CHILLICOTHE      N/A     94  79  61 S9G18     29.84F HX 111

$$
MOZ066>068-077>081-088>096-101>105-220000-
...SOUTHWEST MISSOURI...

CITY           SKY/WX    TMP DP  RH WIND       PRES   REMARKS
SPRINGFIELD    SUNNY     95  69  42 SW12G20   29.94F HX 100
JOPLIN         MOSUNNY   97  72  44 S14G22    29.91F HX 105
BRANSON        MOSUNNY   91  72  52 S6        29.98F HX  98

$$
MOZ032>034-039>042-045>050-055>058-069>072-220000-
...CENTRAL MISSOURI...

CITY           SKY/WX    TMP DP  RH WIND       PRES   REMARKS
COLUMBIA       NOT AVBL
JEFFERSON CITY SUNNY     97  72  44 S6        29.86F HX 105
ROLLA          SUNNY     94  73  50 S6        29.91F HX 103
SEDALIA        SUNNY     96  73  47 SW12      29.89F HX 105
WARRENSBURG    SUNNY     95  70  43 S14G20    29.87S HX 101

$$
MOZ051-052-059>065-220000-
...EAST CENTRAL MISSOURI...

CITY           SKY/WX    TMP DP  RH WIND       PRES   REMARKS
ST LOUIS INTL  MOSUNNY  102  65  29 W9        29.88F HX 105

$$
MOZ072>076-082>087-097>100-106>115-220000-
...SOUTH CENTRAL AND SOUTHEAST MISSOURI...

CITY           SKY/WX    TMP DP  RH WIND       PRES   REMARKS
CAPE GIRARDEAU SUNNY     92  76  59 SW9       29.91F HX 104
POPLAR BLUFF   SUNNY     93  77  59 S8        29.91F HX 107
WEST PLAINS    SUNNY     93  71  48 SW9       29.98F HX 100

$$



USA.gov is the U.S. government's official web portal to all federal, state and local government web resources and services.